Notices

What's New in latest Release from April 7th, 2021:

- Updated Glossary, including Speed of Maximum Gust, and Total Hourly Precipitation

- Updated national and regional climate services offices contacts and prices information

- Addition of station inventory lists for 1981-2010, 1971-2000, and 1961-1990 Normals.

If you haven't already, please take our survey and provide feedback about our website: https://eccc.sondage-survey.ca/f/LanguageSelection.aspx?s=442ca660-fcf1-47c0-95a9-59707d6fd709

Hourly Data Report for April 11, 2018

CLYDE RIVER A
NUNAVUT
Current Station Operator: NAVCAN

70°29'09.000" N
68°31'01.000" W
26.50 m
2400804
71090
YCY

Download Data

Hourly Data (April 2018)
Hourly Data Report for April 11, 2018
TIME
LST
Temp Definition
°C
Dew Point Definition
°C
Rel Hum Definition
%
Precip. Amount Definition
mm

Wind Dir Definition
10's deg

Wind Spd Definition
km/h
Visibility Definition
km
Stn Press Definition
kPa
Hmdx Definition


Wind Chill Definition


Weather Definition


00:00 -23.6 -26.3 79 0.0 27 15 16.1 100.14   -34 LegendNANA
01:00 -23.1 -26.1 77 0.0 26 13 16.1 100.13   -32 LegendNANA
02:00 -23.6 -26.6 77 0.0 26 15 16.1 100.11   -34 LegendNANA
03:00 -24.1 -27.0 78 0.0 25 9 16.1 100.12   -32 LegendNANA
04:00 -24.3 -27.0 79 0.0 25 13 16.1 100.10   -34 LegendNANA
05:00 -25.1 -27.9 78 0.0 25 13 16.1 100.09   -35 LegendNANA
06:00 -24.7 -27.7 76 0.0 24 15 16.1 100.10   -35 LegendNANA
07:00 -23.3 -26.5 76 0.0 26 11 16.1 100.10   -32 LegendNANA
08:00 -23.6 -27.0 74 0.0 25 13 16.1 100.11   -33 LegendNANA
09:00 -21.8 -25.3 74 0.0 25 11 16.1 100.10   -30 LegendNANA
10:00 -19.5 -23.5 71 0.0 26 9 16.1 100.11   -26 LegendNANA
11:00 -20.4 -23.9 74 0.0 26 9 16.1 100.11   -27 LegendNANA
12:00 -19.2 -22.8 74 0.0 25 5 16.1 100.11   -23 LegendNANA
13:00 -18.3 -22.4 71 0.0 25 8 16.1 100.12   -24 LegendNANA
14:00 -18.0 -21.7 73 0.0 25 9 16.1 100.18   -24 LegendNANA
15:00 -17.8 -21.7 72 0.0 23 9 16.1 100.22   -24 LegendNANA
16:00 -18.0 -21.6 74 0.0 25 8 16.1 100.24   -24 LegendNANA
17:00 -19.1 -22.4 76 0.0 25 9 16.1 100.28   -26 LegendNANA
18:00 -21.6 -24.7 76 0.0 27 5 16.1 100.34   -26 LegendNANA
19:00 -22.9 -26.3 75 0.0 27 5 16.1 100.39   -28 LegendNANA
20:00 -21.6 -25.2 73 0.0 25 9 16.1 100.44   -29 LegendNANA
21:00 -22.7 -25.7 77 0.0 26 8 16.1 100.50   -29 LegendNANA
22:00 -22.5 -25.9 75 0.0 25 9 16.1 100.54   -30 LegendNANA
23:00 -25.6 -28.6 76 0.0 25 5 16.1 100.57   -31 LegendNANA

Notes on Data Quality.

Legend

  • E = Estimated
  • M = Missing
  • NA = Not Available*
  • [empty] = Indicates an unobserved value
Date modified: